Regional Weather Roundup
Issued by NWS

Home | Current Version | Previous Version | Graphics & Text | Print | Product List | Glossary On
Versions: 1 2 3 4 5 6 7 8 9 10 11 12 13 14 15 16 17 18 19 20 21 22 23 24 25 26 27 28 29 30 31 32 33 34 35 36 37 38 39 40 41 42 43 44 45 46 47 48 49 50
000
ASUS43 KDMX 201107
RWRIA

WEATHER ROUNDUP FOR IOWA
NATIONAL WEATHER SERVICE DES MOINES IA
600 AM CDT MON OCT 20 2014

NOTE: "FAIR" INDICATES FEW OR NO CLOUDS BELOW 12,000 FEET WITH NO
SIGNIFICANT WEATHER AND/OR OBSTRUCTIONS TO VISIBILITY.

* - THESE STATIONS ARE NOT NWS STATIONS...THUS NOT UNDER NWS
QUALITY CONTROL.  THEY ALSO DO NOT REPORT WEATHER SUCH
AS PRECIPITATION OR FOG.

IAZ001>003-012>014-020>022-031>034-043>046-201200-
   NORTHWEST IOWA

CITY           SKY/WX    TMP DP  RH WIND       PRES   REMARKS
CARROLL *      CLEAR     45  39  81 NW6       30.00R
CHEROKEE *     CLEAR     36  36 100 CALM      30.03R
DENISON *      CLEAR     39  39 100 CALM      30.00R
LE MARS *      CLEAR     36  34  93 CALM      30.04R
ORANGE CITY *  CLEAR     43  36  75 NW5       30.03R
SHELDON *      CLEAR     37  36  93 NW5       30.02R WCI  34
SIOUX CITY     CLEAR     41  39  93 NW5       30.04R
SPENCER        CLEAR     35  32  88 NW7       30.01R WCI  29
STORM LAKE *   CLEAR     46  37  71 NW8       30.02R
$$

IAZ055>058-069>071-079>083-090>094-201200-
   SOUTHWEST IOWA

CITY           SKY/WX    TMP DP  RH WIND       PRES   REMARKS
ATLANTIC *     CLEAR     37  37 100 NE5       30.00R WCI  34
AUDUBON *      CLEAR     39  34  81 CALM      30.02R
CLARINDA *     CLEAR     45  45 100 CALM      30.01R
COUNCIL BLFS * CLEAR     50  48  93 N8        30.00R
CRESTON *      CLEAR     50  45  81 N8        29.99R
HARLAN  *      CLEAR     41  41 100 N3        30.04R
LAMONI         CLEAR     48  45  89 NW7       29.98R
RED OAK *      CLEAR     41  41 100 CALM      30.00R
SHENANDOAH *     N/A     45  43  93 CALM      30.01R
$$

IAZ047>049-059>061-072>074-084-201200-
   CENTRAL IOWA

CITY           SKY/WX    TMP DP  RH WIND       PRES   REMARKS
AMES           CLEAR     44  39  82 N5        29.98R
ANKENY *       CLEAR     50  43  76 N5        29.97R
CHARITON *     CLEAR     48  45  87 NW7       29.97R
DES MOINES     CLEAR     48  43  82 N7        29.98R
GRINNELL*      CLEAR     45  41  87 NW6       29.95R
KNOXVILLE *    CLEAR     48  43  81 NW8       29.95R
MARSHALLTOWN   CLEAR     41  39  93 NW9       29.95R
PELLA *        CLEAR     46  43  87 NW6       29.96S
PERRY *          N/A     43  41  93 NW5       29.99R
$$

IAZ004>006-015-016-023>025-035-036-201200-
   NORTH CENTRAL IOWA

CITY           SKY/WX    TMP DP  RH WIND       PRES   REMARKS
ALGONA *       CLEAR     43  39  87 NW6       29.99R
CLARION *      CLEAR     41  39  93 NW6       29.98R
ESTHERVILLE    CLEAR     43  38  82 NW10      30.00R
FORT DODGE *   CLEAR     43  37  81 CALM      30.00R
MASON CITY     CLEAR     40  38  93 W6        29.98R
FOREST CITY *  CLEAR     41  39  93 CALM      29.98R
IOWA FALLS *     N/A     43  39  87 NW8       29.97R
$$

IAZ007>011-017>019-026>030-037>042-050>054-066-201200-
   NORTHEAST IOWA

CITY           SKY/WX    TMP DP  RH WIND       PRES   REMARKS
CEDAR RAPIDS   CLEAR     45  43  93 NW8       29.91R
CHARLES CITY * CLEAR     46  41  81 NW7       29.95R
CLINTON *      CLEAR     45  39  81 W7        29.88R
DECORAH *      CLEAR     46  43  87 CALM      29.91R
DUBUQUE        CLEAR     49  43  80 NW14      29.87R
MONTICELLO *   CLEAR     46  43  87 NW9       29.89R
OELWEIN *      CLEAR     45  43  93 NW8       29.93R
WATERLOO       CLEAR     46  41  82 NW9       29.94R
$$

IAZ064-065-067-068-078-201200-
   EAST CENTRAL IOWA

CITY           SKY/WX    TMP DP  RH WIND       PRES   REMARKS
DAVENPORT      CLEAR     44  40  85 W9        29.88R
IOWA CITY      CLEAR     50  44  80 NW10      29.92R
MT. PLEASANT * CLEAR     50  45  81 W8        29.92R
MUSCATINE *    CLEAR     50  45  81 NW8       29.90R
QUAD CITIES    CLEAR     48  44  86 W7        29.87R
$$

IAZ062-063-075>077-085>089-095>099-201200-
   SOUTHEAST IOWA

CITY           SKY/WX    TMP DP  RH WIND       PRES   REMARKS
BURLINGTON     CLEAR     51  47  86 NW7       29.90R
FAIRFIELD *    CLEAR     48  43  81 W6        29.93R
FORT MADISON * CLEAR     54  48  82 W8        29.92R
KEOKUK *       CLEAR     50  48  93 W9        29.91R
OSKALOOSA *      N/A     48  43  81 NW8       29.94R
CENTERVILLE *  CLEAR     48  46  93 NW6       29.97R
OTTUMWA        CLEAR     49  44  83 NW7       29.94R
WASHINGTON *   CLEAR     48  46  93 NW8       29.92R
$$

ABBREVIATIONS USED IN REMARKS
   TC - TEMPERATURES IN CELSIUS
  WCI - WIND CHILL INDEX
   HX - HEAT INDEX
  VSB - VISIBILITY
$$



USA.gov is the U.S. government's official web portal to all federal, state and local government web resources and services.